[[{"header":{"parameterUnit":"m.s-1","parameterCategory":1,"la1":30.2991,"la2":30.254,"lo1":-89.0895,"lo2":-89.0444,"dy":0.0017,"dx":0.0017,"nx":28,"ny":28,"refTime":"2025-12-20T09:00:00:Z","depth":0,"parameterNumber":2,"parameterNumberName":"U-component_of_WINDS"},"data":[0,0,0,0,0,0,0,0,0,0,0,0,0,0,0,0,0,0,0,0,0,0,0,0,0,0,0,0,0,0,0,0,0,0,0,0,0,0,0,0,0,0,0,0,0,0,0,0,0,0,0,0,0,0,0,0,0,0,-2.811,-2.811,0,-2.8168,-2.8169,-2.8169,-2.8149,-2.8147,-2.8146,-2.8145,-2.8201,-2.8203,-2.8206,0,0,0,0,0,0,0,0,0,0,0,0,0,-2.7977,-2.798,-2.811,-2.811,-2.8111,-2.8168,-2.8169,-2.8169,-2.8149,-2.8147,-2.8146,-2.8144,-2.82,-2.8203,-2.8206,0,0,0,0,0,0,0,0,0,0,0,0,0,-2.8035,-2.798,-2.8109,-2.8108,-2.8108,-2.8168,-2.8169,-2.817,-2.8149,-2.8147,-2.8145,-2.8144,-2.8199,-2.8203,-2.8207,-2.827,0,0,-2.8219,-2.8221,0,0,0,0,0,0,0,0,-2.8032,-2.804,-2.8107,-2.8108,-2.8109,-2.8149,-2.8142,-2.8203,-2.815,-2.8134,-2.8145,-2.8143,-2.8185,-2.819,-2.8205,-2.8272,-2.8275,-2.8219,-2.8222,-2.8223,-2.8224,0,0,0,0,0,0,0,-2.8028,-2.8037,-2.8133,-2.8108,-2.8109,-2.8103,-2.8109,-2.8154,-2.8169,-2.8135,-2.8134,-2.8141,-2.8185,-2.8201,-2.8206,-2.8276,-2.8219,-2.8223,-2.8225,-2.8227,-2.8397,-2.8399,0,0,0,0,0,0,-2.8024,-2.8034,-2.8131,-2.8134,-2.8065,-2.8107,-2.8114,-2.8138,-2.8169,-2.8172,-2.8143,-2.814,-2.8195,-2.8201,-2.8208,-2.8283,-2.8223,-2.8227,-2.8229,-2.8395,-2.8398,-2.84,0,0,0,0,0,0,-2.8021,-2.8033,-2.8128,-2.8084,-2.8096,-2.8111,-2.8139,-2.814,-2.8156,-2.8174,-2.8177,-2.8157,-2.8194,-2.8202,-2.8255,-2.8285,-2.8229,-2.8233,-2.8393,-2.8396,-2.8399,-2.8435,0,0,0,0,0,0,-2.8017,-2.8032,-2.8057,-2.8085,-2.8098,-2.8175,-2.8141,-2.8143,-2.8164,-2.8161,-2.8188,-2.8191,-2.8193,-2.8249,-2.8259,-2.8289,-2.8236,-2.839,-2.8394,-2.8398,-2.8431,-2.8439,-2.8446,0,0,0,0,0,-2.8013,-2.8064,-2.8058,-2.807,-2.813,-2.8177,-2.8185,-2.8187,-2.8167,-2.8191,-2.8203,-2.819,-2.8281,-2.8254,-2.8265,-2.8298,-2.8388,-2.8393,-2.8398,-2.8428,-2.8437,-2.8445,0,0,0,0,0,0,-2.8037,-2.8067,-2.8061,-2.8123,-2.8148,-2.8174,-2.8205,-2.8197,-2.8227,-2.8223,-2.8224,-2.823,-2.8284,-2.8296,-2.8267,-2.836,-2.8331,-2.8338,-2.835,-2.8359,-2.8367,-2.8362,-2.8239,0,0,0,0,0,-2.805,-2.8087,-2.8111,-2.8163,-2.8176,-2.8189,-2.8209,-2.8209,-2.8234,-2.8244,-2.826,-2.8283,-2.8317,-2.8339,-2.8371,-2.8433,-2.8438,-2.8461,-2.8468,-2.8474,-2.848,-2.8513,-2.8523,-2.8416,-2.8416,-2.8416,0,0,-2.8076,-2.8098,-2.8121,-2.8169,-2.8188,-2.8225,-2.8197,-2.8238,-2.8265,-2.825,-2.83,-2.8313,-2.8339,-2.8397,-2.8423,-2.8409,-2.8511,-2.848,-2.8485,-2.8487,-2.8519,-2.8529,-2.8538,-2.8419,-2.8419,-2.8418,0,0,-2.8143,-2.8164,-2.8209,-2.823,-2.826,-2.8268,-2.8279,-2.8306,-2.8314,-2.8365,-2.8354,-2.8386,-2.8445,-2.8464,-2.8481,-2.8557,-2.8546,-2.8567,-2.8605,-2.8637,-2.8645,-2.8653,-2.8678,-2.8688,-2.8573,-2.8573,-2.8574,0,-2.8172,-2.8229,-2.8233,-2.8275,-2.8296,-2.8286,-2.8331,-2.835,-2.8389,-2.8403,-2.8387,-2.846,-2.8477,-2.8539,-2.8557,-2.8572,-2.8584,-2.8563,-2.8644,-2.8652,-2.8658,-2.8683,-2.8693,-2.8576,-2.8576,-2.8575,-2.8575,0,-2.8262,-2.8301,-2.8334,-2.8373,-2.8398,-2.8442,-2.8451,-2.8476,-2.8474,-2.8484,-2.8536,-2.8556,-2.8592,-2.8607,-2.8605,-2.8669,-2.8659,-2.8644,-2.8614,-2.8671,-2.8694,-2.8703,-2.8579,-2.8578,-2.8578,-2.8577,0,0,-2.8344,-2.8386,-2.8398,-2.8415,-2.8448,-2.8478,-2.8521,-2.8558,-2.8578,-2.8605,-2.864,-2.8691,-2.8677,-2.8697,-2.8697,-2.8726,-2.8783,-2.8707,-2.8708,-2.8719,-2.8852,-2.8862,-2.8873,-2.8777,-2.8779,-2.878,-2.885,0,-2.8412,-2.8488,-2.8494,-2.8562,-2.8598,-2.859,-2.8627,-2.8651,-2.8661,-2.8692,-2.8703,-2.8738,-2.8719,-2.873,-2.8759,-2.877,-2.8809,-2.8766,-2.8808,-2.8809,-2.8799,-2.8885,-2.8896,-2.896,-2.8859,-2.886,-2.8862,0,-2.8501,-2.8533,-2.8605,-2.8634,-2.8649,-2.8682,-2.8716,-2.8747,-2.8773,-2.8779,-2.8802,-2.8799,-2.8841,-2.8812,-2.887,-2.884,-2.8858,-2.8866,-2.8869,-2.8871,-2.8837,-2.8888,-2.8981,-2.899,-2.8876,-2.8875,-2.8874,0,-2.8552,-2.8613,-2.8664,-2.8679,-2.8714,-2.8737,-2.8753,-2.8778,-2.8799,-2.8829,-2.8843,-2.8877,-2.8894,-2.892,-2.8926,-2.8904,-2.8984,-2.8955,-2.8988,-2.8988,-2.9003,-2.9002,-2.9098,-2.9018,-2.9018,-2.9017,-2.9017,0,-2.8627,-2.8671,-2.8687,-2.8718,-2.8767,-2.8773,-2.8821,-2.8835,-2.8857,-2.889,-2.8885,-2.8916,-2.8922,-2.8954,-2.8959,-2.9005,-2.9014,-2.9018,-2.9018,-2.9018,-2.9017,-2.9028,-2.9023,-2.902,-2.9019,-2.9019,-2.9019,0,-2.8691,-2.8704,-2.8759,-2.8788,-2.8796,-2.8831,-2.8855,-2.8884,-2.8895,-2.8936,-2.8946,-2.8962,-2.8999,-2.9008,-2.9051,-2.9055,-2.9109,-2.9106,-2.9101,-2.91,-2.9132,-2.9128,-2.9237,-2.9251,-2.9163,-2.9164,-2.9165,0,-2.8737,-2.8771,-2.8804,-2.8826,-2.8843,-2.8879,-2.8902,-2.8909,-2.8933,-2.8966,-2.8991,-2.9028,-2.9058,-2.9117,-2.9131,-2.9165,-2.9161,-2.9197,-2.9166,-2.9164,-2.916,-2.9157,-2.916,-2.9203,-2.9203,-2.9204,-2.9205,0,-2.8816,-2.8821,-2.8855,-2.8891,-2.8918,-2.8947,-2.8974,-2.8992,-2.9003,-2.903,-2.9068,-2.9092,-2.9137,-2.9173,-2.9207,-2.9221,-2.9214,-2.9215,-2.9224,-2.9222,-2.9217,-2.9219,-2.9115,-2.9212,-2.9211,-2.9211,-2.921,-2.921,-2.8871,-2.8901,-2.8929,-2.8967,-2.8988,-2.9014,-2.9043,-2.9058,-2.9091,-2.9129,-2.9132,-2.9173,-2.9199,-2.9244,-2.9261,-2.9292,-2.9281,-2.9295,-2.9298,-2.93,-2.9303,-2.9214,-2.9299,-2.9299,-2.9298,-2.9298,-2.9298,0,-2.8949,-2.8967,-2.9002,-2.9041,-2.907,-2.9064,-2.9094,-2.9118,-2.9155,-2.9181,-2.9211,-2.9255,-2.929,-2.9308,-2.9343,-2.9365,-2.9362,-2.9373,-2.9371,-2.9374,-2.9311,-2.9299,-2.9375,-2.9375,-2.9375,-2.9375,-2.9375,-2.9375,-2.8993,-2.9043,-2.9051,-2.9111,-2.9129,-2.9171,-2.9188,-2.9212,-2.9232,-2.9282,-2.9312,-2.9324,-2.9346,-2.9383,-2.9414,-2.9419,-2.9431,-2.9443,-2.9446,-2.9386,-2.9378,-2.9371,-2.9359,-2.9446,-2.9446,-2.9505,-2.9506,-2.9506]},{"header":{"parameterUnit":"m.s-1","parameterCategory":1,"la1":30.2991,"la2":30.254,"lo1":-89.0895,"lo2":-89.0444,"dy":0.0017,"dx":0.0017,"nx":28,"ny":28,"refTime":"2025-12-20T09:00:00:Z","depth":0,"parameterNumber":3,"parameterNumberName":"V-component_of_WINDS"},"data":[0,0,0,0,0,0,0,0,0,0,0,0,0,0,0,0,0,0,0,0,0,0,0,0,0,0,0,0,0,0,0,0,0,0,0,0,0,0,0,0,0,0,0,0,0,0,0,0,0,0,0,0,0,0,0,0,0,0,1.763,1.7631,0,1.7713,1.7714,1.7715,1.7744,1.7744,1.7744,1.7743,1.7824,1.7827,1.7829,0,0,0,0,0,0,0,0,0,0,0,0,0,1.7494,1.7497,1.763,1.7631,1.7632,1.7713,1.7714,1.7715,1.7744,1.7744,1.7744,1.7743,1.7824,1.7826,1.7829,0,0,0,0,0,0,0,0,0,0,0,0,0,1.7563,1.7497,1.763,1.7656,1.766,1.7713,1.7714,1.7716,1.7744,1.7744,1.7743,1.7743,1.7823,1.7826,1.783,1.7861,0,0,1.7841,1.7843,0,0,0,0,0,0,0,0,1.7559,1.7568,1.7652,1.7655,1.7658,1.7718,1.7696,1.7764,1.7744,1.7712,1.7743,1.7743,1.7789,1.7795,1.7812,1.7865,1.7869,1.7841,1.7844,1.7845,1.7846,0,0,0,0,0,0,0,1.7554,1.7564,1.7663,1.7653,1.7657,1.7663,1.7673,1.7709,1.7752,1.7715,1.7717,1.7727,1.7791,1.7808,1.7814,1.787,1.7841,1.7844,1.7847,1.7848,1.7955,1.7955,0,0,0,0,0,0,1.7545,1.756,1.766,1.7665,1.7607,1.7666,1.7677,1.7699,1.7752,1.7759,1.7727,1.7728,1.7802,1.781,1.7817,1.7859,1.7845,1.7848,1.7851,1.7954,1.7955,1.7955,0,0,0,0,0,0,1.7542,1.7554,1.7657,1.7613,1.7627,1.7669,1.7694,1.7701,1.7719,1.7761,1.7768,1.7737,1.7802,1.7812,1.7851,1.7862,1.785,1.7853,1.7953,1.7954,1.7955,1.7942,0,0,0,0,0,0,1.7538,1.7553,1.7566,1.7614,1.7629,1.769,1.7695,1.7703,1.7725,1.7727,1.7773,1.778,1.7803,1.7845,1.7854,1.7867,1.7856,1.7952,1.7954,1.7955,1.7941,1.7942,1.7942,0,0,0,0,0,1.7533,1.7557,1.7566,1.7578,1.7646,1.7691,1.7699,1.7727,1.7726,1.7739,1.7767,1.7778,1.7859,1.7849,1.7859,1.7873,1.7952,1.7953,1.7955,1.7941,1.7942,1.7942,0,0,0,0,0,0,1.7508,1.7564,1.7574,1.7615,1.7648,1.7695,1.7713,1.7726,1.7759,1.7759,1.7791,1.7801,1.7837,1.7859,1.7847,1.7907,1.7906,1.791,1.7892,1.7893,1.7894,1.7888,1.7859,0,0,0,0,0,1.7507,1.7539,1.7586,1.7617,1.7633,1.767,1.769,1.7709,1.7744,1.7757,1.7788,1.782,1.7853,1.7874,1.7907,1.7944,1.7955,1.7959,1.7959,1.796,1.7963,1.7986,1.7988,1.796,1.796,1.796,0,0,1.7505,1.754,1.7558,1.7613,1.7641,1.7673,1.7682,1.7715,1.7739,1.7762,1.7802,1.7825,1.7863,1.7902,1.792,1.7921,1.7973,1.7962,1.7962,1.7964,1.7987,1.799,1.7992,1.7961,1.7961,1.7961,0,0,1.7519,1.7548,1.7579,1.7607,1.765,1.7674,1.7681,1.7727,1.7744,1.7785,1.7803,1.7831,1.7887,1.7915,1.7936,1.7961,1.7973,1.7971,1.7975,1.7996,1.7999,1.8001,1.8011,1.8015,1.7973,1.7973,1.7973,0,1.7512,1.7562,1.7592,1.7625,1.7649,1.7673,1.7704,1.7729,1.7779,1.7795,1.7795,1.7867,1.7894,1.7941,1.7947,1.7963,1.7972,1.7966,1.7996,1.7999,1.8001,1.8011,1.8015,1.7973,1.7973,1.7973,1.7973,0,1.7551,1.7586,1.7605,1.7655,1.7681,1.7712,1.7746,1.7769,1.7785,1.7809,1.785,1.7884,1.7925,1.7937,1.7952,1.7986,1.7985,1.799,1.799,1.8003,1.8013,1.8017,1.7972,1.7972,1.7973,1.7973,0,0,1.7551,1.7619,1.7625,1.7649,1.7699,1.7726,1.7758,1.78,1.7819,1.7853,1.7881,1.7929,1.7934,1.7958,1.7977,1.7996,1.8016,1.7999,1.8,1.8002,1.8056,1.8053,1.8057,1.8024,1.8025,1.8025,1.8054,0,1.7572,1.7633,1.7662,1.771,1.7743,1.7767,1.7795,1.7828,1.7852,1.7883,1.7908,1.7942,1.7947,1.7961,1.7981,1.8009,1.8027,1.8007,1.8051,1.8052,1.8042,1.8062,1.8059,1.8084,1.8058,1.8058,1.8059,0,1.7605,1.7642,1.7694,1.7741,1.7756,1.7781,1.7822,1.7851,1.7889,1.7905,1.7933,1.7951,1.7986,1.7983,1.8032,1.8018,1.8037,1.8053,1.8055,1.8061,1.8057,1.807,1.8092,1.8096,1.8065,1.8065,1.8064,0,1.7601,1.7663,1.7703,1.7722,1.7778,1.7796,1.7819,1.7857,1.7881,1.7916,1.7932,1.797,1.7991,1.802,1.8048,1.8043,1.8095,1.8093,1.8109,1.8108,1.8119,1.8118,1.8146,1.813,1.813,1.8129,1.8129,0,1.7623,1.7654,1.7702,1.7727,1.7763,1.7795,1.7829,1.7854,1.7888,1.7918,1.794,1.7967,1.8002,1.8033,1.8054,1.8092,1.8101,1.8115,1.8121,1.8114,1.8112,1.8128,1.8127,1.8131,1.813,1.813,1.813,0,1.7625,1.7658,1.7703,1.7753,1.7767,1.7791,1.7833,1.7858,1.7883,1.792,1.7931,1.797,1.8009,1.8039,1.8088,1.8103,1.8143,1.8149,1.8131,1.8134,1.8149,1.8147,1.8188,1.8196,1.8173,1.8173,1.8173,0,1.7637,1.7662,1.7715,1.7737,1.7762,1.7797,1.7822,1.7854,1.7879,1.7926,1.7944,1.7985,1.8019,1.8078,1.8111,1.8149,1.8156,1.8168,1.8162,1.8155,1.8158,1.8157,1.816,1.8169,1.8169,1.8169,1.8169,0,1.7655,1.7671,1.7707,1.7749,1.7778,1.7813,1.7847,1.7864,1.7903,1.7929,1.797,1.7996,1.8048,1.8088,1.813,1.8153,1.8168,1.817,1.8176,1.817,1.816,1.8167,1.8134,1.8169,1.8169,1.8169,1.8169,1.8169,1.7663,1.7687,1.7729,1.7769,1.7799,1.7831,1.7858,1.7887,1.7922,1.7968,1.7984,1.8026,1.8064,1.8123,1.8146,1.8179,1.818,1.8188,1.8191,1.8192,1.8192,1.8154,1.8186,1.8186,1.8186,1.8186,1.8186,0,1.7684,1.7712,1.7748,1.7798,1.7829,1.7841,1.7881,1.7906,1.7943,1.7978,1.8012,1.8059,1.8098,1.8134,1.8175,1.8194,1.8202,1.8204,1.8203,1.8209,1.8188,1.818,1.8197,1.8197,1.8197,1.8197,1.8197,1.8197,1.7698,1.774,1.7761,1.7818,1.7847,1.7889,1.7911,1.7941,1.797,1.8022,1.8055,1.8079,1.8115,1.8159,1.8195,1.8205,1.8219,1.822,1.8231,1.8211,1.821,1.8208,1.8201,1.8222,1.8222,1.8249,1.8249,1.8249]}]]